Regional Weather Roundup
Issued by NWS Albany, NY

Home | Current Version | Previous Version | Text Only | Print | Product List | Glossary On
Versions: 1 2 3 4 5 6 7 8 9 10 11 12 13 14 15 16 17 18 19 20 21 22 23 24 25 26 27
000
ASUS41 KALY 291310
RWRALY

NEW YORK STATE HOURLY WEATHER ROUNDUP
NATIONAL WEATHER SERVICE ALBANY NY
900 AM EDT FRI JUL 29 2016

NOTE: "FAIR" INDICATES FEW OR NO CLOUDS BELOW 12,000 FEET WITH NO
SIGNIFICANT WEATHER AND/OR NO OBSTRUCTIONS TO VISIBILITY.

NYZ032-033-038>043-046>054-057>066-NYZ062>081-082-084-291400-
EAST


CITY           SKY/WX    TMP DP  RH WIND       PRES   REMARKS
ALBANY         PTSUNNY   72  67  84 N6        29.90R
GLENS FALLS    CLOUDY    72  65  78 N5        29.90S
POUGHKEEPSIE   MOSUNNY   74  68  81 CALM      29.87S
NEWBURGH       LGT RAIN  72  70  94 VRB6      29.90R
MONTGOMERY     PTSUNNY   74  70  87 N5        29.89R
WHITE PLAINS   LGT RAIN  70  66  87 NE3       29.87R
ISLIP          RAIN      68  67  96 N9        29.84R FOG
NEW YORK CITY  LGT RAIN  71  68  90 N10       29.86R
CENTRAL PARK   LGT RAIN  70  67  90 NE3       29.90R FOG
$$

NYZ005>009-017-018-044>046-055-056-291400-
CENTRAL


CITY           SKY/WX    TMP DP  RH WIND       PRES   REMARKS
FULTON         SUNNY     78  66  66 N6        29.92R
SYRACUSE       MOSUNNY   73  67  81 CALM      29.91R
ROME           SUNNY     73  66  78 CALM      29.92R
ELMIRA         SUNNY     74  63  68 CALM      29.93R
BINGHAMTON     SUNNY     73  62  68 N6        29.94R
MONTICELLO     PTSUNNY   70  68  94 CALM      29.95R
$$

NYZ026>034-041>043-087-291400-
NORTH


CITY           SKY/WX    TMP DP  RH WIND       PRES   REMARKS
WATERTOWN      SUNNY     71  58  63 NE12      29.94S
FORT DRUM      NOT AVBL
MASSENA        MOSUNNY   69  57  65 NE10      29.97R
SARANAC LAKE   MOSUNNY   70  57  63 E6        29.97R
PLATTSBURGH    MOSUNNY   71  61  70 N6        29.93S
$$

NYZ001>004-010>016-019>021-085-291400-
WEST


CITY           SKY/WX    TMP DP  RH WIND       PRES   REMARKS
NIAGARA FALLS  PTSUNNY   74  64  71 NE12      29.95R
BUFFALO        PTSUNNY   74  64  71 NE10      29.95R
DUNKIRK        SUNNY     75  66  73 NE7       29.94S
JAMESTOWN      SUNNY     68  63  83 CALM      29.98R
WELLSVILLE     SUNNY     69  61  75 SE3       30.01R
ROCHESTER      PTSUNNY   75  65  70 E9        29.96R
PENN YAN       CLOUDY    73  66  78 CALM      29.95R
$$

             KEY
       WCI = WIND CHILL INDEX
       VSB = VISIBILITY
       HX  = HEAT INDEX
$$




USA.gov is the U.S. government's official web portal to all federal, state and local government web resources and services.